Location: Unspecified
(0.0000°N, 0.0000°E)
Time: 13:45:05
(UTC+00:00)

JUGNU - Pass Details

Date: 25 February 2020
Orbit: 836 x 864 km, 20.0° (Epoch: 01 April)

Event Time Altitude Azimuth Distance (km) Brightness Sun altitude
Rises 18:45:18 0° 283° (WNW) 3,382 ? -7.9°
Reaches altitude 10° 18:47:54 10° 279° (W) 2,444 ? -8.6°
Maximum altitude 18:53:38 57° 201° (SSW) 979 ? -10.0°
Drops below altitude 10° 18:59:22 10° 123° (ESE) 2,437 ? -11.4°
Enters shadow 19:00:13 - 121° (ESE) 2,740 ? -11.6°
